Lid_Strength_Index
-0 -0 0 -0 1 1 2 2 3 5 4 1 2 -2 0 0 -0 2 2 0 1 1 1 1 1 0 1 1 1 1 1 -0 -0 -1 -2 -2 -2 -2
-0 -0 -0 -0 1 1 2 3 2 3 5 3 2 0 0 2 1 2 2 1 2 2 1 1 1 1 1 1 1 1 0 0 0 0 -0 -0 -1 -2
-0 0 0 -1 0 0 -0 1 2 2 4 3 2 1 2 2 2 2 2 1 3 1 1 1 2 1 1 2 2 1 1 1 0 0 1 1 1 1
0 0 1 0 0 -0 0 0 0 -0 4 2 2 3 1 0 1 1 2 4 4 1 1 1 1 2 2 2 2 1 -1 -1 -1 -2 -2 -1 -1 0
0 0 0 0 1 1 0 1 0 1 1 3 4 4 5 3 2 1 1 3 3 2 1 2 2 2 2 2 1 -0 -0 -1 -1 -1 -1 -2 -2 -1
-0 -0 0 0 1 1 1 1 1 1 2 4 5 6 6 4 3 4 4 2 4 4 2 3 2 1 2 1 0 -1 -0 1 1 0 0 0 0 -0
0 -0 -0 0 1 1 1 1 0 1 2 5 6 5 6 6 5 5 5 4 3 3 3 3 3 3 2 0 -1 -1 0 1 1 1 1 1 1 0
1 0 0 1 1 4 4 3 3 1 2 4 5 6 3 5 5 6 5 5 6 5 3 4 3 3 2 1 -1 -1 -0 1 2 2 2 2 1 1
0 0 1 0 1 0 4 4 4 5 4 2 5 5 5 4 4 5 4 5 5 5 4 6 3 4 2 2 -0 -0 -0 1 1 1 2 2 2 2
0 0 0 0 0 0 0 1 2 2 2 5 5 4 4 5 4 4 4 5 5 5 4 6 4 4 3 2 -1 0 1 1 1 2 2 2 3 3
0 0 0 0 2 6 1 1 1 2 4 6 7 7 8 8 6 5 8 7 7 8 5 6 5 5 4 3 1 1 1 2 2 2 1 2 3 3
0 0 3 1 4 8 1 1 2 2 1 3 7 9 9 8 8 8 8 8 7 9 4 6 5 5 6 3 2 1 1 2 4 3 2 4 4 2
1 1 0 6 7 9 8 1 2 1 3 5 9 9 9 9 8 8 7 8 8 9 6 6 6 6 5 5 3 2 2 2 2 2 5 5 5 4
1 1 1 7 11 11 9 7 9 6 5 7 9 10 10 9 8 6 7 6 5 6 4 3 5 5 6 5 5 3 3 2 3 3 3 4 5 4
1 3 8 10 12 10 11 11 10 5 7 9 11 11 10 8 7 6 5 4 5 4 4 2 3 3 5 5 5 5 4 3 3 4 4 4 5 5
5 2 3 7 9 6 6 8 5 6 8 10 11 11 10 9 8 7 7 7 7 6 2 1 1 2 5 5 5 5 4 6 5 5 5 5 5 6
2 1 1 1 2 3 3 5 6 7 9 9 11 11 11 10 9 7 7 7 8 7 7 4 1 1 3 2 6 5 5 6 6 6 6 7 6 6
2 2 2 2 3 2 2 3 6 8 8 9 11 11 11 10 10 8 7 8 7 7 6 5 5 6 6 5 4 6 5 6 7 7 7 8 8 7
2 2 2 2 2 2 2 2 5 7 8 11 12 11 11 10 9 8 8 8 7 7 6 5 6 7 8 9 5 7 7 8 9 8 9 9 8 7
2 2 2 2 2 2 2 3 6 8 10 12 12 11 11 10 9 8 8 7 6 6 6 6 6 7 8 8 7 8 8 8 10 11 11 9 7 5
2 2 1 1 2 1 1 4 9 11 12 12 11 11 11 10 9 8 8 11 9 8 8 7 6 6 5 5 7 7 7 9 9 10 11 13 11 10
1 1 1 1 1 1 4 7 9 11 12 11 10 11 10 9 9 8 7 8 7 6 7 6 5 6 6 7 8 7 6 6 8 10 10 11 13 14
1 1 1 1 1 3 5 8 10 11 10 9 10 10 9 9 8 6 6 7 7 6 7 7 7 6 6 7 8 7 6 7 8 11 9 10 10 10